Year,Month,Day,Hour,Minute,Value (Times are PST for temperature in C)
2017,03,05,00,00,2.60
2017,03,05,00,01,2.60
2017,03,05,00,02,2.60
2017,03,05,00,03,2.60
2017,03,05,00,04,2.60
2017,03,05,00,05,2.60
2017,03,05,00,06,2.60
2017,03,05,00,07,2.60
2017,03,05,00,08,2.60
2017,03,05,00,09,2.50
2017,03,05,00,10,2.50
2017,03,05,00,11,2.50
2017,03,05,00,12,2.50
2017,03,05,00,13,2.50
2017,03,05,00,14,2.50
2017,03,05,00,15,2.50
2017,03,05,00,16,2.40
2017,03,05,00,17,2.40
2017,03,05,00,18,2.40
2017,03,05,00,19,2.40
2017,03,05,00,20,2.40
2017,03,05,00,21,2.40
2017,03,05,00,22,2.40
2017,03,05,00,23,2.40
2017,03,05,00,24,2.40
2017,03,05,00,25,2.40
2017,03,05,00,26,2.50
2017,03,05,00,27,2.50
2017,03,05,00,28,2.50
2017,03,05,00,29,2.50
2017,03,05,00,30,2.50
2017,03,05,00,31,2.50
2017,03,05,00,32,2.50
2017,03,05,00,33,2.50
2017,03,05,00,34,2.50
2017,03,05,00,35,2.60
2017,03,05,00,36,2.50
2017,03,05,00,37,2.60
2017,03,05,00,38,2.60
2017,03,05,00,39,2.60
2017,03,05,00,40,2.60
2017,03,05,00,41,2.60
2017,03,05,00,42,2.60
2017,03,05,00,43,2.60
2017,03,05,00,44,2.60
2017,03,05,00,45,2.60
2017,03,05,00,46,2.60
2017,03,05,00,47,2.70
2017,03,05,00,48,2.70
2017,03,05,00,49,2.70
2017,03,05,00,50,2.70
2017,03,05,00,51,2.70
2017,03,05,00,52,2.70
2017,03,05,00,53,2.70
2017,03,05,00,54,2.70
2017,03,05,00,55,2.70
2017,03,05,00,56,2.70
2017,03,05,00,57,2.70
2017,03,05,00,58,2.70
2017,03,05,00,59,2.70
2017,03,05,01,00,2.70
2017,03,05,01,01,2.70
2017,03,05,01,02,2.70
2017,03,05,01,03,2.70
2017,03,05,01,04,2.70
2017,03,05,01,05,2.70
2017,03,05,01,06,2.60
2017,03,05,01,07,2.60
2017,03,05,01,08,2.60
2017,03,05,01,09,2.50
2017,03,05,01,10,2.50
2017,03,05,01,11,2.50
2017,03,05,01,12,2.40
2017,03,05,01,13,2.40
2017,03,05,01,14,2.40
2017,03,05,01,15,2.40
2017,03,05,01,16,2.40
2017,03,05,01,17,2.30
2017,03,05,01,18,2.30
2017,03,05,01,19,2.30
2017,03,05,01,20,2.20
2017,03,05,01,21,2.20
2017,03,05,01,22,2.20
2017,03,05,01,23,2.10
2017,03,05,01,24,2.10
2017,03,05,01,25,2.10
2017,03,05,01,26,2.10
2017,03,05,01,27,2.10
2017,03,05,01,28,2.00
2017,03,05,01,29,2.00
2017,03,05,01,30,2.00
2017,03,05,01,31,2.00
2017,03,05,01,32,2.00
2017,03,05,01,33,2.00
2017,03,05,01,34,2.00
2017,03,05,01,35,1.90
2017,03,05,01,36,1.90
2017,03,05,01,37,1.90
2017,03,05,01,38,1.90
2017,03,05,01,39,1.90
2017,03,05,01,40,1.90
2017,03,05,01,41,1.90
2017,03,05,01,42,1.80
2017,03,05,01,43,1.80
2017,03,05,01,44,1.80
2017,03,05,01,45,1.70
2017,03,05,01,46,1.70
2017,03,05,01,47,1.70
2017,03,05,01,48,1.60
2017,03,05,01,49,1.60
2017,03,05,01,50,1.60
2017,03,05,01,51,1.50
2017,03,05,01,52,1.50
2017,03,05,01,53,1.50
2017,03,05,01,54,1.40
2017,03,05,01,55,1.40
2017,03,05,01,56,1.40
2017,03,05,01,57,1.40
2017,03,05,01,58,1.30
2017,03,05,01,59,1.30
2017,03,05,02,00,1.30
2017,03,05,02,01,1.30
2017,03,05,02,02,1.30
2017,03,05,02,03,1.20
2017,03,05,02,04,1.20
2017,03,05,02,05,1.20
2017,03,05,02,06,1.10
2017,03,05,02,07,1.10
2017,03,05,02,08,1.10
2017,03,05,02,09,1.10
2017,03,05,02,10,1.00
2017,03,05,02,11,1.00
2017,03,05,02,12,1.00
2017,03,05,02,13,0.90
2017,03,05,02,14,0.90
2017,03,05,02,15,0.90
2017,03,05,02,16,0.90
2017,03,05,02,17,0.90
2017,03,05,02,18,0.80
2017,03,05,02,19,0.80
2017,03,05,02,20,0.80
2017,03,05,02,21,0.80
2017,03,05,02,22,0.80
2017,03,05,02,23,0.80
2017,03,05,02,24,0.80
2017,03,05,02,25,0.80
2017,03,05,02,26,0.70
2017,03,05,02,27,0.80
2017,03,05,02,28,0.70
2017,03,05,02,29,0.70
2017,03,05,02,30,0.70
2017,03,05,02,31,0.70
2017,03,05,02,32,0.70
2017,03,05,02,33,0.70
2017,03,05,02,34,0.70
2017,03,05,02,35,0.70
2017,03,05,02,36,0.70
2017,03,05,02,37,0.70
2017,03,05,02,38,0.70
2017,03,05,02,39,0.70
2017,03,05,02,40,0.70
2017,03,05,02,41,0.70
2017,03,05,02,42,0.70
2017,03,05,02,43,0.70
2017,03,05,02,44,0.70
2017,03,05,02,45,0.70
2017,03,05,02,46,0.70
2017,03,05,02,47,0.70
2017,03,05,02,48,0.70
2017,03,05,02,49,0.70
2017,03,05,02,50,0.70
2017,03,05,02,51,0.70
2017,03,05,02,52,0.70
2017,03,05,02,53,0.70
2017,03,05,02,54,0.70
2017,03,05,02,55,0.70
2017,03,05,02,56,0.70
2017,03,05,02,57,0.60
2017,03,05,02,58,0.60
2017,03,05,02,59,0.60
2017,03,05,03,00,0.60
2017,03,05,03,01,0.60
2017,03,05,03,02,0.60
2017,03,05,03,03,0.60
2017,03,05,03,04,0.60
2017,03,05,03,05,0.60
2017,03,05,03,06,0.60
2017,03,05,03,07,0.60
2017,03,05,03,08,0.60
2017,03,05,03,09,0.60
2017,03,05,03,10,0.60
2017,03,05,03,11,0.60
2017,03,05,03,12,0.60
2017,03,05,03,13,0.60
2017,03,05,03,14,0.60
2017,03,05,03,15,0.60
2017,03,05,03,16,0.60
2017,03,05,03,17,0.60
2017,03,05,03,18,0.60
2017,03,05,03,19,0.60
2017,03,05,03,20,0.60
2017,03,05,03,21,0.60
2017,03,05,03,22,0.60
2017,03,05,03,23,0.60
2017,03,05,03,24,0.50
2017,03,05,03,25,0.50
2017,03,05,03,26,0.50
2017,03,05,03,27,0.50
2017,03,05,03,28,0.50
2017,03,05,03,29,0.50
2017,03,05,03,30,0.50
2017,03,05,03,31,0.50
2017,03,05,03,32,0.50
2017,03,05,03,33,0.50
2017,03,05,03,34,0.50
2017,03,05,03,35,0.50
2017,03,05,03,36,0.50
2017,03,05,03,37,0.50
2017,03,05,03,38,0.50
2017,03,05,03,39,0.50
2017,03,05,03,40,0.50
2017,03,05,03,41,0.50
2017,03,05,03,42,0.50
2017,03,05,03,43,0.50
2017,03,05,03,44,0.50
2017,03,05,03,45,0.50
2017,03,05,03,46,0.50
2017,03,05,03,47,0.50
2017,03,05,03,48,0.50
2017,03,05,03,49,0.50
2017,03,05,03,50,0.50
2017,03,05,03,51,0.50
2017,03,05,03,52,0.50
2017,03,05,03,53,0.50
2017,03,05,03,54,0.50
2017,03,05,03,55,0.50
2017,03,05,03,56,0.50
2017,03,05,03,57,0.50
2017,03,05,03,58,0.50
2017,03,05,03,59,0.50
2017,03,05,04,00,0.50
2017,03,05,04,01,0.50
2017,03,05,04,02,0.50
2017,03,05,04,03,0.40
2017,03,05,04,04,0.40
2017,03,05,04,05,0.40
2017,03,05,04,06,0.40
2017,03,05,04,07,0.40
2017,03,05,04,08,0.40
2017,03,05,04,09,0.40
2017,03,05,04,10,0.40
2017,03,05,04,11,0.40
2017,03,05,04,12,0.40
2017,03,05,04,13,0.40
2017,03,05,04,14,0.40
2017,03,05,04,15,0.40
2017,03,05,04,16,0.40
2017,03,05,04,17,0.40
2017,03,05,04,18,0.40
2017,03,05,04,19,0.40
2017,03,05,04,20,0.40
2017,03,05,04,21,0.40
2017,03,05,04,22,0.40
2017,03,05,04,23,0.40
2017,03,05,04,24,0.40
2017,03,05,04,25,0.40
2017,03,05,04,26,0.40
2017,03,05,04,27,0.40
2017,03,05,04,28,0.40
2017,03,05,04,29,0.40
2017,03,05,04,30,0.40
2017,03,05,04,31,0.40
2017,03,05,04,32,0.40
2017,03,05,04,33,0.40
2017,03,05,04,34,0.40
2017,03,05,04,35,0.40
2017,03,05,04,36,0.40
2017,03,05,04,37,0.40
2017,03,05,04,38,0.40
2017,03,05,04,39,0.40
2017,03,05,04,40,0.40
2017,03,05,04,41,0.40
2017,03,05,04,42,0.40
2017,03,05,04,43,0.40
2017,03,05,04,44,0.40
2017,03,05,04,45,0.40
2017,03,05,04,46,0.40
2017,03,05,04,47,0.40
2017,03,05,04,48,0.40
2017,03,05,04,49,0.40
2017,03,05,04,50,0.40
2017,03,05,04,51,0.40
2017,03,05,04,52,0.40
2017,03,05,04,53,0.40
2017,03,05,04,54,0.40
2017,03,05,04,55,0.40
2017,03,05,04,56,0.40
2017,03,05,04,57,0.40
2017,03,05,04,58,0.40
2017,03,05,04,59,0.40
2017,03,05,05,00,0.40
2017,03,05,05,01,0.40
2017,03,05,05,02,0.40
2017,03,05,05,03,0.50
2017,03,05,05,04,0.50
2017,03,05,05,05,0.50
2017,03,05,05,06,0.50
2017,03,05,05,07,0.50
2017,03,05,05,08,0.50
2017,03,05,05,09,0.50
2017,03,05,05,10,0.50
2017,03,05,05,11,0.50
2017,03,05,05,12,0.50
2017,03,05,05,13,0.50
2017,03,05,05,14,0.50
2017,03,05,05,15,0.50
2017,03,05,05,16,0.50
2017,03,05,05,17,0.50
2017,03,05,05,18,0.50
2017,03,05,05,19,0.50
2017,03,05,05,20,0.50
2017,03,05,05,21,0.50
2017,03,05,05,22,0.50
2017,03,05,05,23,0.50
2017,03,05,05,24,0.50
2017,03,05,05,25,0.50
2017,03,05,05,26,0.50
2017,03,05,05,27,0.50
2017,03,05,05,28,0.50
2017,03,05,05,29,0.50
2017,03,05,05,30,0.50
2017,03,05,05,31,0.50
2017,03,05,05,32,0.50
2017,03,05,05,33,0.50
2017,03,05,05,34,0.50
2017,03,05,05,35,0.50
2017,03,05,05,36,0.50
2017,03,05,05,37,0.50
2017,03,05,05,38,0.50
2017,03,05,05,39,0.50
2017,03,05,05,40,0.50
2017,03,05,05,41,0.50
2017,03,05,05,42,0.50
2017,03,05,05,43,0.40
2017,03,05,05,44,0.40
2017,03,05,05,45,0.40
2017,03,05,05,46,0.40
2017,03,05,05,47,0.40
2017,03,05,05,48,0.50
2017,03,05,05,49,0.40
2017,03,05,05,50,0.40
2017,03,05,05,51,0.40
2017,03,05,05,52,0.40
2017,03,05,05,53,0.40
2017,03,05,05,54,0.40
2017,03,05,05,55,0.40
2017,03,05,05,56,0.40
2017,03,05,05,57,0.40
2017,03,05,05,58,0.40
2017,03,05,05,59,0.40
2017,03,05,06,00,0.40
2017,03,05,06,01,0.40
2017,03,05,06,02,0.40
2017,03,05,06,03,0.40
2017,03,05,06,04,0.40
2017,03,05,06,05,0.50
2017,03,05,06,06,0.50
2017,03,05,06,07,0.40
2017,03,05,06,08,0.40
2017,03,05,06,09,0.40
2017,03,05,06,10,0.40
2017,03,05,06,11,0.40
2017,03,05,06,12,0.40
2017,03,05,06,13,0.40
2017,03,05,06,14,0.40
2017,03,05,06,15,0.40
2017,03,05,06,16,0.40
2017,03,05,06,17,0.40
2017,03,05,06,18,0.40
2017,03,05,06,19,0.40
2017,03,05,06,20,0.40
2017,03,05,06,21,0.40
2017,03,05,06,22,0.40
2017,03,05,06,23,0.40
2017,03,05,06,24,0.40
2017,03,05,06,25,0.40
2017,03,05,06,26,0.40
2017,03,05,06,27,0.40
2017,03,05,06,28,0.40
2017,03,05,06,29,0.40
2017,03,05,06,30,0.40
2017,03,05,06,31,0.40
2017,03,05,06,32,0.40
2017,03,05,12,12,3.60
2017,03,05,12,13,3.60
2017,03,05,12,14,3.60
2017,03,05,12,15,3.60
2017,03,05,12,16,3.60
2017,03,05,12,17,3.50
2017,03,05,12,18,3.50
2017,03,05,12,19,3.50
2017,03,05,12,20,3.50
2017,03,05,12,21,3.40
2017,03,05,12,22,3.40
2017,03,05,12,23,3.40
2017,03,05,12,24,3.30
2017,03,05,12,25,3.30
2017,03,05,12,26,3.20
2017,03,05,12,27,3.20
2017,03,05,12,28,3.20
2017,03,05,12,29,3.20
2017,03,05,12,30,3.20
2017,03,05,12,31,3.20
2017,03,05,12,32,3.20
2017,03,05,12,33,3.20
2017,03,05,12,34,3.20
2017,03,05,12,35,3.20
2017,03,05,12,36,3.20
2017,03,05,12,37,3.20
2017,03,05,12,38,3.20
2017,03,05,12,39,3.20
2017,03,05,12,40,3.20
2017,03,05,12,41,3.20
2017,03,05,12,42,3.20
2017,03,05,12,43,3.20
2017,03,05,12,44,3.20
2017,03,05,12,45,3.20
2017,03,05,12,46,3.20
2017,03,05,12,47,3.20
2017,03,05,12,48,3.20
2017,03,05,12,49,3.20
2017,03,05,12,50,3.20
2017,03,05,12,51,3.20
2017,03,05,12,52,3.20
2017,03,05,12,53,3.20
2017,03,05,12,54,3.20
2017,03,05,12,55,3.20
2017,03,05,12,56,3.30
2017,03,05,12,57,3.30
2017,03,05,12,58,3.30
2017,03,05,12,59,3.30
2017,03,05,13,00,3.30
2017,03,05,13,01,3.30
2017,03,05,13,02,3.30
2017,03,05,13,03,3.30
2017,03,05,13,04,3.30
2017,03,05,13,05,3.30
2017,03,05,13,06,3.30
2017,03,05,13,07,3.30
2017,03,05,13,08,3.40
2017,03,05,13,09,3.40
2017,03,05,13,10,3.40
2017,03,05,13,11,3.40
2017,03,05,13,12,3.40
2017,03,05,13,13,3.50
2017,03,05,13,14,3.50
2017,03,05,13,15,3.60
2017,03,05,13,16,3.60
2017,03,05,13,17,3.60
2017,03,05,13,18,3.60
2017,03,05,13,19,3.60
2017,03,05,13,20,3.60
2017,03,05,13,21,3.60
2017,03,05,13,22,3.60
2017,03,05,13,23,3.60
2017,03,05,13,24,3.50
2017,03,05,13,25,3.50
2017,03,05,13,26,3.50
2017,03,05,13,27,3.50
2017,03,05,13,28,3.50
2017,03,05,13,29,3.60
2017,03,05,13,30,3.50
2017,03,05,13,31,3.60
2017,03,05,13,32,3.60
2017,03,05,13,33,3.60
2017,03,05,13,34,3.60
2017,03,05,13,35,3.60
2017,03,05,13,36,3.50
2017,03,05,13,37,3.50
2017,03,05,13,38,3.50
2017,03,05,13,39,3.50
2017,03,05,13,40,3.50
2017,03,05,13,41,3.40
2017,03,05,13,42,3.40
2017,03,05,13,43,3.40
2017,03,05,13,44,3.30
2017,03,05,13,45,3.30
2017,03,05,13,46,3.30
2017,03,05,13,47,3.30
2017,03,05,13,48,3.20
2017,03,05,13,49,3.20
2017,03,05,13,50,3.10
2017,03,05,13,51,3.10
2017,03,05,13,52,3.10
2017,03,05,13,53,3.10
2017,03,05,13,54,3.10
2017,03,05,13,55,3.10
2017,03,05,13,56,3.10
2017,03,05,13,57,3.10
2017,03,05,13,58,3.00
2017,03,05,13,59,3.00
2017,03,05,14,00,3.10
2017,03,05,14,01,3.10
2017,03,05,14,02,3.10
2017,03,05,14,03,3.10
2017,03,05,14,04,3.10
2017,03,05,14,05,3.20
2017,03,05,14,06,3.20
2017,03,05,14,07,3.20
2017,03,05,14,08,3.20
2017,03,05,14,09,3.20
2017,03,05,14,10,3.20
2017,03,05,14,11,3.20
2017,03,05,14,12,3.20
2017,03,05,14,13,3.20
2017,03,05,14,14,3.20
2017,03,05,14,15,3.20
2017,03,05,14,16,3.30
2017,03,05,14,17,3.30
2017,03,05,14,18,3.30
2017,03,05,14,19,3.20
2017,03,05,14,20,3.20
2017,03,05,14,21,3.20
2017,03,05,14,22,3.20
2017,03,05,14,23,3.10
2017,03,05,14,24,3.10
2017,03,05,14,25,3.10
2017,03,05,14,26,3.10
2017,03,05,14,27,3.10
2017,03,05,14,28,3.10
2017,03,05,14,29,3.10
2017,03,05,14,30,3.10
2017,03,05,14,31,3.10
2017,03,05,14,32,3.10
2017,03,05,14,33,3.10
2017,03,05,14,34,3.10
2017,03,05,14,35,3.10
2017,03,05,14,36,3.10
2017,03,05,14,37,3.00
2017,03,05,14,38,3.00
2017,03,05,14,39,3.00
2017,03,05,14,40,3.00
2017,03,05,14,41,3.00
2017,03,05,14,42,3.00
2017,03,05,14,43,3.00
2017,03,05,14,44,2.90
2017,03,05,14,45,3.00
2017,03,05,14,46,2.90
2017,03,05,14,47,2.90
2017,03,05,14,48,2.90
2017,03,05,14,49,2.90
2017,03,05,14,50,2.90
2017,03,05,14,51,2.90
2017,03,05,14,52,2.90
2017,03,05,14,53,2.90
2017,03,05,14,54,2.90
2017,03,05,14,55,2.90
2017,03,05,14,56,2.90
2017,03,05,14,57,2.90
2017,03,05,14,58,2.90
2017,03,05,14,59,2.90
2017,03,05,15,00,2.80
2017,03,05,15,01,2.80
2017,03,05,15,02,2.80
2017,03,05,15,03,2.80
2017,03,05,15,04,2.80
2017,03,05,15,05,2.80
2017,03,05,15,06,2.80
2017,03,05,15,07,2.80
2017,03,05,15,08,2.80
2017,03,05,15,09,2.80
2017,03,05,15,10,2.80
2017,03,05,15,11,2.80
2017,03,05,15,12,2.80
2017,03,05,15,13,2.80
2017,03,05,15,14,2.90
2017,03,05,15,15,2.90
2017,03,05,15,16,2.90
2017,03,05,15,17,2.90
2017,03,05,15,18,2.90
2017,03,05,15,19,2.90
2017,03,05,15,20,2.90
2017,03,05,15,21,2.90
2017,03,05,15,22,2.80
2017,03,05,15,23,2.90
2017,03,05,15,24,2.90
2017,03,05,15,25,2.90
2017,03,05,15,26,2.90
2017,03,05,15,27,2.80
2017,03,05,15,28,2.80
2017,03,05,15,29,2.80
2017,03,05,15,30,2.80
2017,03,05,15,31,2.80
2017,03,05,15,32,2.80
2017,03,05,15,33,2.80
2017,03,05,15,34,2.80
2017,03,05,15,35,2.80
2017,03,05,15,36,2.80
2017,03,05,15,37,2.80
2017,03,05,15,38,2.90
2017,03,05,15,39,2.90
2017,03,05,15,40,2.90
2017,03,05,15,41,2.80
2017,03,05,15,42,2.80
2017,03,05,15,43,2.80
2017,03,05,15,44,2.80
2017,03,05,15,45,2.80
2017,03,05,15,46,2.80
2017,03,05,15,47,2.80
2017,03,05,15,48,2.80
2017,03,05,15,49,2.80
2017,03,05,15,50,2.80
2017,03,05,15,51,2.80
2017,03,05,15,52,2.80
2017,03,05,15,53,2.80
2017,03,05,15,54,2.80
2017,03,05,15,55,2.80
2017,03,05,15,56,2.80
2017,03,05,15,57,2.80
2017,03,05,15,58,2.70
2017,03,05,15,59,2.70
2017,03,05,16,00,2.70
2017,03,05,16,01,2.70
2017,03,05,16,02,2.70
2017,03,05,16,03,2.70
2017,03,05,16,04,2.70
2017,03,05,16,05,2.70
2017,03,05,16,06,2.70
2017,03,05,16,07,2.80
2017,03,05,16,08,2.80
2017,03,05,16,09,2.70
2017,03,05,16,10,2.70
2017,03,05,16,11,2.80
2017,03,05,16,12,2.80
2017,03,05,16,13,2.80
2017,03,05,16,14,2.80
2017,03,05,16,15,2.80
2017,03,05,16,16,2.80
2017,03,05,16,17,2.80
2017,03,05,16,18,2.80
2017,03,05,16,19,2.80
2017,03,05,16,20,2.80
2017,03,05,16,21,2.80
2017,03,05,16,22,2.80
2017,03,05,16,23,2.80
2017,03,05,16,24,2.80
2017,03,05,16,25,2.90
2017,03,05,16,26,2.90
2017,03,05,16,27,2.90
2017,03,05,16,28,2.90
2017,03,05,16,29,2.90
2017,03,05,16,30,2.90
2017,03,05,16,31,2.90
2017,03,05,16,32,2.90
2017,03,05,16,33,2.90
2017,03,05,16,34,2.90
2017,03,05,16,35,2.90
2017,03,05,16,36,2.90
2017,03,05,16,37,2.90
2017,03,05,16,38,2.90
2017,03,05,16,39,2.90
2017,03,05,16,40,2.90
2017,03,05,16,41,3.00
2017,03,05,16,42,3.00
2017,03,05,16,43,2.90
2017,03,05,16,44,3.00
2017,03,05,16,45,3.00
2017,03,05,16,46,3.00
2017,03,05,16,47,3.00
2017,03,05,16,48,3.00
2017,03,05,16,49,3.00
2017,03,05,16,50,3.00
2017,03,05,16,51,3.00
2017,03,05,16,52,3.00
2017,03,05,16,53,3.00
2017,03,05,16,54,3.00
2017,03,05,16,55,3.00
2017,03,05,16,56,3.00
2017,03,05,16,57,3.00
2017,03,05,16,58,3.00
2017,03,05,16,59,3.00
2017,03,05,17,00,3.00
2017,03,05,17,01,3.00
2017,03,05,17,02,3.00
2017,03,05,17,03,3.00
2017,03,05,17,04,3.00
2017,03,05,17,05,3.10
2017,03,05,17,06,3.10
2017,03,05,17,07,3.10
2017,03,05,17,08,3.10
2017,03,05,17,09,3.10
2017,03,05,17,10,3.10
2017,03,05,17,11,3.10
2017,03,05,17,12,3.10
2017,03,05,17,13,3.10
2017,03,05,17,14,3.10
2017,03,05,17,15,3.10
2017,03,05,17,16,3.10
2017,03,05,17,17,3.10
2017,03,05,17,18,3.10
2017,03,05,17,19,3.10
2017,03,05,17,20,3.10
2017,03,05,17,21,3.10
2017,03,05,17,22,3.10
2017,03,05,17,23,3.10
2017,03,05,17,24,3.10
2017,03,05,17,25,3.10
2017,03,05,17,26,3.10
2017,03,05,17,27,3.10
2017,03,05,17,28,3.10
2017,03,05,17,29,3.10
2017,03,05,17,30,3.10
2017,03,05,17,31,3.10
2017,03,05,17,32,3.10
2017,03,05,17,33,3.10
2017,03,05,17,34,3.10
2017,03,05,17,35,3.10
2017,03,05,17,36,3.10
2017,03,05,17,37,3.10
2017,03,05,17,38,3.10
2017,03,05,17,39,3.10
2017,03,05,17,40,3.10
2017,03,05,17,41,3.10
2017,03,05,17,42,3.10
2017,03,05,17,43,3.10
2017,03,05,17,44,3.00
2017,03,05,17,45,3.00
2017,03,05,17,46,3.00
2017,03,05,17,47,3.00
2017,03,05,17,48,3.00
2017,03,05,17,49,3.00
2017,03,05,17,50,3.00
2017,03,05,17,51,3.00
2017,03,05,17,52,3.00
2017,03,05,17,53,3.00
2017,03,05,17,54,2.90
2017,03,05,17,55,2.90
2017,03,05,17,56,2.90
2017,03,05,17,57,2.90
2017,03,05,17,58,2.90
2017,03,05,17,59,2.90
2017,03,05,18,00,2.90
2017,03,05,18,01,2.90
2017,03,05,18,02,2.90
2017,03,05,18,03,2.90
2017,03,05,18,04,2.90
2017,03,05,18,05,2.90
2017,03,05,18,06,2.80
2017,03,05,18,07,2.80
2017,03,05,18,08,2.80
2017,03,05,18,09,2.80
2017,03,05,18,10,2.80
2017,03,05,18,11,2.70
2017,03,05,18,12,2.70
2017,03,05,18,13,2.70
2017,03,05,18,14,2.70
2017,03,05,18,15,2.70
2017,03,05,18,16,2.70
2017,03,05,18,17,2.60
2017,03,05,18,18,2.60
2017,03,05,18,19,2.60
2017,03,05,18,20,2.60
2017,03,05,18,21,2.50
2017,03,05,18,22,2.50
2017,03,05,18,23,2.50
2017,03,05,18,24,2.50
2017,03,05,18,25,2.50
2017,03,05,18,26,2.50
2017,03,05,18,27,2.40
2017,03,05,18,28,2.40
2017,03,05,18,29,2.40
2017,03,05,18,30,2.40
2017,03,05,18,31,2.40
2017,03,05,18,32,2.40
2017,03,05,18,33,2.40
2017,03,05,18,34,2.40
2017,03,05,18,35,2.40
2017,03,05,18,36,2.40
2017,03,05,18,37,2.30
2017,03,05,18,38,2.30
2017,03,05,18,39,2.30
2017,03,05,18,40,2.30
2017,03,05,18,41,2.30
2017,03,05,18,42,2.30
2017,03,05,18,43,2.30
2017,03,05,18,44,2.20
2017,03,05,18,45,2.20
2017,03,05,18,46,2.20
2017,03,05,18,47,2.20
2017,03,05,18,48,2.20
2017,03,05,18,49,2.20
2017,03,05,18,50,2.10
2017,03,05,18,51,2.10
2017,03,05,18,52,2.10
2017,03,05,18,53,2.10
2017,03,05,18,54,2.10
2017,03,05,18,55,2.10
2017,03,05,18,56,2.10
2017,03,05,18,57,2.10
2017,03,05,18,58,2.10
2017,03,05,18,59,2.00
2017,03,05,19,00,2.00
2017,03,05,19,01,2.00
2017,03,05,19,02,2.00
2017,03,05,19,03,2.00
2017,03,05,19,04,2.00
2017,03,05,19,05,2.00
2017,03,05,19,06,2.00
2017,03,05,19,07,2.00
2017,03,05,19,08,2.00
2017,03,05,19,09,2.00
2017,03,05,19,10,2.00
2017,03,05,19,11,2.00
2017,03,05,19,12,2.00
2017,03,05,19,13,2.00
2017,03,05,19,14,2.00
2017,03,05,19,15,2.00
2017,03,05,19,16,1.90
2017,03,05,19,17,1.90
2017,03,05,19,18,1.90
2017,03,05,19,19,1.90
2017,03,05,19,20,1.90
2017,03,05,19,21,1.90
2017,03,05,19,22,1.90
2017,03,05,19,23,1.90
2017,03,05,19,24,1.90
2017,03,05,19,25,1.90
2017,03,05,19,26,1.90
2017,03,05,19,27,1.90
2017,03,05,19,28,1.80
2017,03,05,19,29,1.80
2017,03,05,19,30,1.80
2017,03,05,19,31,1.80
2017,03,05,19,32,1.80
2017,03,05,19,33,1.80
2017,03,05,19,34,1.80
2017,03,05,19,35,1.80
2017,03,05,19,36,1.80
2017,03,05,19,37,1.70
2017,03,05,19,38,1.70
2017,03,05,19,39,1.70
2017,03,05,19,40,1.70
2017,03,05,19,41,1.70
2017,03,05,19,42,1.70
2017,03,05,19,43,1.70
2017,03,05,19,44,1.70
2017,03,05,19,45,1.70
2017,03,05,19,46,1.70
2017,03,05,19,47,1.70
2017,03,05,19,48,1.70
2017,03,05,19,49,1.70
2017,03,05,19,50,1.70
2017,03,05,19,51,1.70
2017,03,05,19,52,1.70
2017,03,05,19,53,1.60
2017,03,05,19,54,1.60
2017,03,05,19,55,1.60
2017,03,05,19,56,1.60
2017,03,05,19,57,1.60
2017,03,05,19,58,1.50
2017,03,05,19,59,1.50
2017,03,05,20,00,1.50
2017,03,05,20,01,1.40
2017,03,05,20,02,1.40
2017,03,05,20,03,1.40
2017,03,05,20,04,1.40
2017,03,05,20,05,1.40
2017,03,05,20,06,1.40
2017,03,05,20,07,1.40
2017,03,05,20,08,1.30
2017,03,05,20,09,1.30
2017,03,05,20,10,1.30
2017,03,05,20,11,1.30
2017,03,05,20,12,1.30
2017,03,05,20,13,1.30
2017,03,05,20,14,1.20
2017,03,05,20,15,1.20
2017,03,05,20,16,1.20
2017,03,05,20,17,1.20
2017,03,05,20,18,1.20
2017,03,05,20,19,1.10
2017,03,05,20,20,1.10
2017,03,05,20,21,1.10
2017,03,05,20,22,1.10
2017,03,05,20,23,1.10
2017,03,05,20,24,1.00
2017,03,05,20,25,1.00
2017,03,05,20,26,1.00
2017,03,05,20,27,0.90
2017,03,05,20,28,0.90
2017,03,05,20,29,0.90
2017,03,05,20,30,0.90
2017,03,05,20,31,0.80
2017,03,05,20,32,0.80
2017,03,05,20,33,0.80
2017,03,05,20,34,0.80
2017,03,05,20,35,0.70
2017,03,05,20,36,0.70
2017,03,05,20,37,0.70
2017,03,05,20,38,0.70
2017,03,05,20,39,0.60
2017,03,05,20,40,0.60
2017,03,05,20,41,0.60
2017,03,05,20,42,0.60
2017,03,05,20,43,0.60
2017,03,05,20,44,0.60
2017,03,05,20,45,0.50
2017,03,05,20,46,0.50
2017,03,05,20,47,0.50
2017,03,05,20,48,0.50
2017,03,05,20,49,0.50
2017,03,05,20,50,0.50
2017,03,05,20,51,0.40
2017,03,05,20,52,0.40
2017,03,05,20,53,0.40
2017,03,05,20,54,0.40
2017,03,05,20,55,0.40
2017,03,05,20,56,0.40
2017,03,05,20,57,0.40
2017,03,05,20,58,0.40
2017,03,05,20,59,0.30
2017,03,05,21,00,0.30
2017,03,05,21,01,0.30
2017,03,05,21,02,0.30
2017,03,05,21,03,0.30
2017,03,05,21,04,0.30
2017,03,05,21,05,0.30
2017,03,05,21,06,0.30
2017,03,05,21,07,0.30
2017,03,05,21,08,0.30
2017,03,05,21,09,0.20
2017,03,05,21,10,0.20
2017,03,05,21,11,0.20
2017,03,05,21,12,0.20
2017,03,05,21,13,0.20
2017,03,05,21,14,0.20
2017,03,05,21,15,0.20
2017,03,05,21,16,0.20
2017,03,05,21,17,0.20
2017,03,05,21,18,0.20
2017,03,05,21,19,0.20
2017,03,05,21,20,0.20
2017,03,05,21,21,0.20
2017,03,05,21,22,0.20
2017,03,05,21,23,0.20
2017,03,05,21,24,0.20
2017,03,05,21,25,0.20
2017,03,05,21,26,0.20
2017,03,05,21,27,0.20
2017,03,05,21,28,0.20
2017,03,05,21,29,0.20
2017,03,05,21,30,0.30
2017,03,05,21,31,0.30
2017,03,05,21,32,0.30
2017,03,05,21,33,0.30
2017,03,05,21,34,0.30
2017,03,05,21,35,0.20
2017,03,05,21,36,0.20
2017,03,05,21,37,0.20
2017,03,05,21,38,0.20
2017,03,05,21,39,0.20
2017,03,05,21,40,0.20
2017,03,05,21,41,0.20
2017,03,05,21,42,0.20
2017,03,05,21,43,0.20
2017,03,05,21,44,0.20
2017,03,05,21,45,0.20
2017,03,05,21,46,0.20
2017,03,05,21,47,0.30
2017,03,05,21,48,0.30
2017,03,05,21,49,0.30
2017,03,05,21,50,0.30
2017,03,05,21,51,0.20
2017,03,05,21,52,0.20
2017,03,05,21,53,0.20
2017,03,05,21,54,0.20
2017,03,05,21,55,0.20
2017,03,05,21,56,0.20
2017,03,05,21,57,0.20
2017,03,05,21,58,0.20
2017,03,05,21,59,0.20
2017,03,05,22,00,0.20
2017,03,05,22,01,0.20
2017,03,05,22,02,0.20
2017,03,05,22,03,0.20
2017,03,05,22,04,0.20
2017,03,05,22,05,0.10
2017,03,05,22,06,0.10
2017,03,05,22,07,0.00
2017,03,05,22,08,0.00
2017,03,05,22,09,0.00
2017,03,05,22,10,0.00
2017,03,05,22,11,0.00
2017,03,05,22,12,0.00
2017,03,05,22,13,0.00
2017,03,05,22,14,0.00
2017,03,05,22,15,0.00
2017,03,05,22,16,0.00
2017,03,05,22,17,0.00
2017,03,05,22,18,0.00
2017,03,05,22,19,0.00
2017,03,05,22,20,0.00
2017,03,05,22,21,0.00
2017,03,05,22,22,0.00
2017,03,05,22,23,0.00
2017,03,05,22,24,0.00
2017,03,05,22,25,0.00
2017,03,05,22,26,0.00
2017,03,05,22,27,0.00
2017,03,05,22,28,-0.10
2017,03,05,22,29,-0.10
2017,03,05,22,30,-0.10
2017,03,05,22,31,-0.20
2017,03,05,22,32,-0.20
2017,03,05,22,33,-0.20
2017,03,05,22,34,-0.20
2017,03,05,22,35,-0.20
2017,03,05,22,36,-0.20
2017,03,05,22,37,-0.20
2017,03,05,22,38,-0.30
2017,03,05,22,39,-0.30
2017,03,05,22,40,-0.30
2017,03,05,22,41,-0.20
2017,03,05,22,42,-0.20
2017,03,05,22,43,-0.20
2017,03,05,22,44,-0.20
2017,03,05,22,45,-0.20
2017,03,05,22,46,-0.20
2017,03,05,22,47,-0.20
2017,03,05,22,48,-0.20
2017,03,05,22,49,-0.20
2017,03,05,22,50,-0.20
2017,03,05,22,51,-0.20
2017,03,05,22,52,-0.20
2017,03,05,22,53,-0.20
2017,03,05,22,54,-0.20
2017,03,05,22,55,-0.20
2017,03,05,22,56,-0.20
2017,03,05,22,57,-0.20
2017,03,05,22,58,-0.20
2017,03,05,22,59,-0.20
2017,03,05,23,00,-0.20
2017,03,05,23,01,-0.20
2017,03,05,23,02,-0.20
2017,03,05,23,03,-0.20
2017,03,05,23,04,-0.20
2017,03,05,23,05,-0.20
2017,03,05,23,06,-0.20
2017,03,05,23,07,-0.20
2017,03,05,23,08,-0.30
2017,03,05,23,09,-0.30
2017,03,05,23,10,-0.30
2017,03,05,23,11,-0.30
2017,03,05,23,12,-0.30
2017,03,05,23,13,-0.30
2017,03,05,23,14,-0.30
2017,03,05,23,15,-0.30
2017,03,05,23,16,-0.20
2017,03,05,23,17,-0.20
2017,03,05,23,18,-0.20
2017,03,05,23,19,-0.20
2017,03,05,23,20,-0.20
2017,03,05,23,21,-0.20
2017,03,05,23,22,-0.20
2017,03,05,23,23,-0.10
2017,03,05,23,24,-0.10
2017,03,05,23,25,-0.10
2017,03,05,23,26,-0.10
2017,03,05,23,27,-0.10
2017,03,05,23,28,-0.10
2017,03,05,23,29,-0.10
2017,03,05,23,30,-0.10
2017,03,05,23,31,-0.10
2017,03,05,23,32,-0.10
2017,03,05,23,33,-0.10
2017,03,05,23,34,-0.10
2017,03,05,23,35,-0.10
2017,03,05,23,36,0.00
2017,03,05,23,37,0.00
2017,03,05,23,38,0.00
2017,03,05,23,39,0.00
2017,03,05,23,40,0.00
2017,03,05,23,41,0.10
2017,03,05,23,42,0.10